Weather History for St. Charles, MO

Change the Weather History Date:

Friday, January 10, 2014

  Actual Average (KSTL) Record (KSTL)
Temperature  
Mean Temperature 38 °F 32 °F  
Max Temperature 42 °F 39 °F 68 °F (1890)
Min Temperature 33 °F 24 °F -15 °F (1982)
Degree Days  
Heating Degree Days 28 34  
Month to date heating degree days 333  
Since 1 July heating degree days 2098  
Cooling Degree Days 0 0  
Month to date cooling degree days 0  
Year to date cooling degree days 0  
Moisture  
Dew Point 36 °F    
Average Humidity 97    
Maximum Humidity 100    
Minimum Humidity 92    
Precipitation  
Precipitation 0.66 in 0.08 in 2.09 in (1975)
Month to date precipitation 0.84  
Year to date precipitation 0.84  
Snow  
Snow 0.00 in 0.10 in 1.70 in (1905)
Month to date snowfall 1.8  
Since 1 July snowfall 6.9  
Snow Depth -    
Sea Level Pressure  
Sea Level Pressure 29.80 in    
Wind  
Wind Speed 8 mph (SE)    
Max Wind Speed 13 mph    
Max Gust Speed -    
Visibility 4 miles    
Events Fog , Rain    
T = Trace of Precipitation, MM = Missing Value Source: NWS Daily Summary

Daily Weather History Graph

Daily Weather History Graph

Search for Another Location

Airport:

Trip Planner

Search our weather history database for the weather conditions in past years. The results will help you decide how hot, cold, wet, or windy it might be!

Date:

Astronomy

Jan. 10, 2014 Rise Set
Actual Time 7:20 AM CST 4:58 PM CST
Civil Twilight 6:50 AM CST 5:28 PM CST
Nautical Twilight 6:17 AM CST 6:01 PM CST
Astronomical Twilight 5:45 AM CST 6:33 PM CST
Moon 1:01 PM CST (1/10) 2:28 AM CST (1/10)
Length of Visible Light 10h 37m
Length of Day
9h 38m
Waxing Gibbous, 75% of the Moon is Illuminated
Jan 10
Waxing Gibbous
Jan 15
Full
Jan 23
Last Quarter
Jan 30
New
Feb 6
First Quarter

Hourly Weather History & Observations

Time (CST) Temp. Windchill Dew Point Humidity Pressure Visibility Wind Dir Wind Speed Gust Speed Precip Events Conditions
12:54 AM 33.1 °F 27.7 °F 32.0 °F 96% 30.14 in 7.0 mi SSE 5.8 mph - N/A   Overcast
1:54 AM 33.1 °F 27.7 °F 32.0 °F 96% 30.12 in 7.0 mi SE 5.8 mph - N/A   Overcast
2:14 AM 33.1 °F 27.7 °F 32.0 °F 96% 30.10 in 8.0 mi SE 5.8 mph - N/A   Overcast
2:25 AM 33.1 °F 25.5 °F 32.0 °F 96% 30.11 in 8.0 mi SSE 9.2 mph - N/A   Overcast
2:54 AM 33.1 °F 24.4 °F 30.9 °F 92% 30.12 in 9.0 mi SSE 11.5 mph - N/A   Overcast
3:40 AM 33.1 °F 26.9 °F 32.0 °F 96% 30.07 in 8.0 mi ESE 6.9 mph - N/A   Overcast
3:54 AM 33.1 °F 26.1 °F 30.9 °F 92% 30.08 in 8.0 mi SE 8.1 mph - N/A   Overcast
4:05 AM 33.1 °F 28.7 °F 32.0 °F 96% 30.08 in 9.0 mi SE 4.6 mph - N/A   Overcast
4:54 AM 33.1 °F 26.1 °F 32.0 °F 96% 30.06 in 2.5 mi SE 8.1 mph - 0.00 in   Overcast
5:05 AM 33.1 °F 26.9 °F 32.0 °F 96% 30.05 in 3.0 mi ESE 6.9 mph - 0.00 in   Overcast
5:13 AM 33.1 °F 26.1 °F 32.0 °F 96% 30.04 in 2.5 mi ESE 8.1 mph - 0.00 in   Overcast
5:32 AM 33.1 °F 26.1 °F 32.0 °F 96% 30.03 in 2.5 mi East 8.1 mph - 0.00 in   Overcast
5:54 AM 33.1 °F 26.1 °F 32.0 °F 96% 30.03 in 2.5 mi East 8.1 mph - 0.00 in   Overcast
6:23 AM 33.1 °F 25.5 °F 32.0 °F 96% 30.01 in 2.5 mi ESE 9.2 mph - 0.00 in Rain Light Rain
6:28 AM 33.1 °F 25.5 °F 32.0 °F 96% 30.01 in 3.0 mi ESE 9.2 mph - 0.00 in Rain Light Rain
6:54 AM 33.1 °F 26.9 °F 33.1 °F 100% 30.01 in 5.0 mi East 6.9 mph - 0.00 in   Overcast
7:47 AM 34.0 °F 27.2 °F 33.1 °F 96% 29.99 in 4.0 mi ESE 8.1 mph - N/A   Overcast
7:54 AM 34.0 °F 28.8 °F 33.1 °F 96% 30.00 in 4.0 mi ESE 5.8 mph - N/A   Overcast
8:54 AM 35.1 °F 28.6 °F 33.1 °F 92% 29.97 in 5.0 mi ESE 8.1 mph - N/A   Overcast
9:54 AM 36.0 °F 28.0 °F 34.0 °F 93% 29.94 in 6.0 mi ESE 11.5 mph - N/A   Overcast
10:40 AM 36.0 °F 27.5 °F 34.0 °F 93% 29.90 in 3.0 mi SSE 12.7 mph - 0.03 in Rain Light Rain
10:47 AM 37.0 °F 28.9 °F 35.1 °F 93% 29.88 in 2.0 mi SE 12.7 mph - 0.06 in Rain Rain
10:54 AM 36.0 °F 28.5 °F 35.1 °F 97% 29.88 in 2.0 mi SE 10.4 mph - 0.08 in Rain Rain
11:07 AM 37.0 °F 29.3 °F 35.1 °F 93% 29.86 in 3.0 mi SE 11.5 mph - 0.00 in Rain Light Rain
11:54 AM 37.0 °F 29.8 °F 36.0 °F 96% 29.83 in 4.0 mi SE 10.4 mph - 0.02 in Rain Light Rain
12:54 PM 37.9 °F 30.5 °F 37.0 °F 97% 29.77 in 2.5 mi SE 11.5 mph - 0.03 in Rain Rain
1:11 PM 37.9 °F 32.7 °F 37.9 °F 100% 29.77 in 3.0 mi SSE 6.9 mph - 0.02 in Rain Light Rain
1:24 PM 39.0 °F 34.0 °F 37.9 °F 96% 29.75 in 1.8 mi SE 6.9 mph - 0.06 in Rain Rain
1:54 PM 39.9 °F 33.9 °F 39.0 °F 97% 29.74 in 3.0 mi South 9.2 mph - 0.12 in Rain Light Rain
2:32 PM 39.9 °F 33.9 °F 39.9 °F 100% 29.71 in 2.5 mi SSE 9.2 mph - 0.05 in Rain Rain
2:47 PM 39.9 °F 33.4 °F 39.0 °F 97% 29.70 in 4.0 mi SSE 10.4 mph - 0.07 in Rain Light Rain
2:54 PM 41.0 °F 34.7 °F 39.9 °F 96% 29.70 in 4.0 mi SSE 10.4 mph - 0.07 in Rain Light Rain
3:22 PM 42.1 °F 36.1 °F 41.0 °F 96% 29.71 in 1.8 mi SW 10.4 mph - 0.07 in Rain Heavy Rain
3:54 PM 39.0 °F 31.8 °F 39.0 °F 100% 29.70 in 1.2 mi South 11.5 mph - 0.17 in Rain Light Rain
4:05 PM 41.0 °F 34.7 °F 39.9 °F 96% 29.68 in 2.5 mi South 10.4 mph - 0.02 in Rain Light Rain
4:36 PM 41.0 °F 34.7 °F 39.9 °F 96% 29.67 in 3.0 mi SSE 10.4 mph - 0.05 in Rain Light Rain
4:54 PM 39.9 °F 33.4 °F 39.9 °F 100% 29.67 in 4.0 mi SE 10.4 mph - 0.07 in Rain Rain
5:51 PM 42.8 °F 37.0 °F 41.0 °F 93% 29.64 in 10.0 mi SE 10.4 mph - 0.03 in Rain Light Rain
5:54 PM 42.1 °F 36.6 °F 41.0 °F 96% 29.65 in 10.0 mi SE 9.2 mph - 0.03 in   Overcast
6:25 PM 41.0 °F 35.2 °F 41.0 °F 100% 29.62 in 10.0 mi SE 9.2 mph - N/A   Overcast
6:54 PM 39.9 °F 33.9 °F 39.0 °F 97% 29.61 in 6.0 mi ESE 9.2 mph - N/A   Overcast
7:37 PM 39.9 °F 35.1 °F 39.0 °F 97% 29.61 in 8.0 mi NW 6.9 mph - N/A   Overcast
7:54 PM 41.0 °F 38.0 °F 41.0 °F 100% 29.61 in 9.0 mi SSW 4.6 mph - N/A   Overcast
8:52 PM 39.2 °F 35.0 °F 39.2 °F 100% 29.60 in 9.0 mi SSE 5.8 mph - 0.00 in   Overcast
8:54 PM 39.0 °F 34.8 °F 39.0 °F 100% 29.60 in 9.0 mi SSE 5.8 mph - 0.00 in   Overcast
9:36 PM 39.9 °F 37.8 °F 39.9 °F 100% 29.60 in 1.8 mi SSE 3.5 mph - 0.05 in Rain Light Rain
9:49 PM 37.4 °F 32.1 °F 37.4 °F 100% 29.58 in 0.5 mi ESE 6.9 mph - 0.05 in Fog , Rain Light Rain
9:54 PM 39.0 °F 31.8 °F 37.9 °F 96% 29.57 in 0.8 mi East 11.5 mph - 0.06 in Rain Light Rain
10:06 PM 39.9 °F 35.1 °F 39.9 °F 100% 29.57 in 1.0 mi NE 6.9 mph - 0.01 in Rain Light Rain
10:12 PM 41.0 °F 37.1 °F 41.0 °F 100% 29.56 in 3.0 mi East 5.8 mph - 0.01 in Rain Light Rain
10:28 PM 39.9 °F 36.7 °F 39.9 °F 100% 29.56 in 3.0 mi ESE 4.6 mph - 0.01 in   Overcast
10:33 PM 39.9 °F 36.7 °F 39.0 °F 97% 29.55 in 1.8 mi East 4.6 mph - 0.01 in   Overcast
10:44 PM 39.0 °F 36.8 °F 39.0 °F 100% 29.55 in 1.2 mi ESE 3.5 mph - 0.01 in   Overcast
10:54 PM 37.9 °F 35.5 °F 37.9 °F 100% 29.55 in 1.0 mi East 3.5 mph - 0.01 in   Overcast
10:59 PM 39.0 °F 36.8 °F 37.9 °F 96% 29.55 in 0.8 mi East 3.5 mph - N/A   Overcast
11:23 PM 39.0 °F - 39.0 °F 100% 29.55 in 0.5 mi Calm Calm - N/A Fog Fog
11:54 PM 37.9 °F 35.5 °F 37.9 °F 100% 29.55 in 0.5 mi NNE 3.5 mph - N/A Fog Fog